�������l�o���
Date,Time,MP-1(��Sv/h),MP-2(��Sv/h),MP-3(��Sv/h),MP-4(��Sv/h),MP-5(��Sv/h),MP-6(��Sv/h),MP-7(��Sv/h),MP-8(��Sv/h),����,����(m/s),���J
2020/08/12,00:00,0.691,0.992,0.620,1.189,0.869,0.399,0.683,0.639,���k��,4.0,��
2020/08/12,00:10,0.688,0.990,0.621,1.190,0.869,0.399,0.684,0.642,���k��,4.4,��
2020/08/12,00:20,0.689,0.991,0.623,1.189,0.868,0.398,0.683,0.641,�k��,3.3,��
2020/08/12,00:30,0.686,0.989,0.621,1.188,0.868,0.397,0.686,0.641,�k��,5.1,��
2020/08/12,00:40,0.688,0.990,0.623,1.189,0.869,0.399,0.685,0.640,�k��,6.0,��
2020/08/12,00:50,0.689,0.990,0.621,1.189,0.870,0.397,0.685,0.641,�k��,5.1,��
2020/08/12,01:00,0.689,0.990,0.622,1.186,0.867,0.399,0.685,0.642,�k�k��,5.5,��
2020/08/12,01:10,0.689,0.992,0.619,1.188,0.866,0.397,0.683,0.640,�k��,4.1,��
2020/08/12,01:20,0.687,0.991,0.622,1.188,0.865,0.397,0.684,0.642,�k��,2.3,��
2020/08/12,01:30,0.689,0.990,0.621,1.189,0.867,0.400,0.684,0.641,�k�k��,1.9,��
2020/08/12,01:40,0.687,0.989,0.621,1.189,0.867,0.397,0.683,0.640,�k��,3.8,��
2020/08/12,01:50,0.688,0.991,0.622,1.186,0.868,0.397,0.685,0.643,�k��,5.8,��
2020/08/12,02:00,0.687,0.991,0.621,1.190,0.867,0.399,0.685,0.641,�k��,4.6,��
2020/08/12,02:10,0.687,0.990,0.623,1.191,0.868,0.398,0.685,0.642,�k�k��,4.1,��
2020/08/12,02:20,0.686,0.994,0.623,1.189,0.869,0.398,0.683,0.641,�k�k��,3.7,��
2020/08/12,02:30,0.689,0.992,0.623,1.191,0.868,0.398,0.685,0.639,�k�k��,3.9,��
2020/08/12,02:40,0.690,0.991,0.622,1.190,0.868,0.399,0.684,0.641,�k��,4.3,��
2020/08/12,02:50,0.689,0.989,0.621,1.191,0.868,0.399,0.685,0.639,�k��,4.3,��
2020/08/12,03:00,0.689,0.989,0.621,1.189,0.866,0.398,0.686,0.641,�k��,3.2,��
2020/08/12,03:10,0.689,0.990,0.622,1.187,0.869,0.399,0.685,0.640,�k��,2.8,��
2020/08/12,03:20,0.688,0.992,0.620,1.189,0.866,0.396,0.684,0.640,�k��,3.0,��
2020/08/12,03:30,0.688,0.992,0.621,1.188,0.867,0.398,0.686,0.640,�k�k��,3.3,��
2020/08/12,03:40,0.688,0.990,0.622,1.190,0.868,0.397,0.686,0.641,�k�k��,3.1,��
2020/08/12,03:50,0.688,0.989,0.622,1.192,0.869,0.399,0.684,0.640,�k�k��,4.9,��
2020/08/12,04:00,0.689,0.990,0.621,1.192,0.866,0.398,0.685,0.640,�k,3.4,��
2020/08/12,04:10,0.686,0.991,0.622,1.189,0.867,0.398,0.683,0.641,�k,2.6,��
2020/08/12,04:20,0.688,0.990,0.620,1.189,0.868,0.398,0.683,0.641,�k,2.6,��
2020/08/12,04:30,0.686,0.991,0.622,1.189,0.864,0.398,0.684,0.641,�k�k��,2.8,��
2020/08/12,04:40,0.686,0.989,0.621,1.189,0.866,0.397,0.684,0.640,�k�k��,2.9,��
2020/08/12,04:50,0.687,0.990,0.621,1.192,0.867,0.397,0.683,0.642,�k�k��,2.6,��
2020/08/12,05:00,0.689,0.990,0.620,1.188,0.866,0.398,0.685,0.641,�k,2.8,��
2020/08/12,05:10,0.686,0.991,0.620,1.188,0.866,0.396,0.683,0.641,�k,3.2,��
2020/08/12,05:20,0.688,0.990,0.620,1.191,0.867,0.397,0.683,0.641,�k,2.8,��
2020/08/12,05:30,0.687,0.990,0.620,1.190,0.866,0.396,0.682,0.640,�k�k��,2.9,��
2020/08/12,05:40,0.686,0.990,0.620,1.188,0.867,0.396,0.685,0.642,�k,2.3,��
2020/08/12,05:50,0.688,0.989,0.620,1.188,0.867,0.398,0.684,0.641,�k�k��,2.9,��
2020/08/12,06:00,0.688,0.991,0.621,1.186,0.864,0.396,0.683,0.641,�k,2.8,��
2020/08/12,06:10,0.687,0.990,0.620,1.190,0.866,0.397,0.683,0.640,�k,2.3,��
2020/08/12,06:20,0.687,0.989,0.622,1.190,0.866,0.397,0.683,0.640,�k,3.1,��
2020/08/12,06:30,0.687,0.991,0.621,1.191,0.866,0.397,0.684,0.642,�k,3.6,��
2020/08/12,06:40,0.686,0.990,0.620,1.190,0.868,0.399,0.682,0.642,�k,4.0,��
2020/08/12,06:50,0.686,0.991,0.620,1.189,0.866,0.397,0.684,0.641,�k,3.9,��
2020/08/12,07:00,0.688,0.992,0.620,1.189,0.867,0.398,0.683,0.641,�k,3.0,��
2020/08/12,07:10,0.686,0.991,0.621,1.188,0.868,0.398,0.683,0.641,�k,2.3,��
2020/08/12,07:20,0.687,0.992,0.620,1.190,0.869,0.397,0.684,0.642,�k,2.6,��
2020/08/12,07:30,0.687,0.985,0.618,1.190,0.866,0.395,0.684,0.639,�k�k��,1.9,�L
2020/08/12,07:40,0.686,0.984,0.620,1.189,0.867,0.397,0.685,0.641,�k�k��,2.2,�L
2020/08/12,07:50,0.684,0.985,0.621,1.191,0.865,0.396,0.685,0.642,�k�k��,2.5,��
2020/08/12,08:00,0.684,0.987,0.619,1.188,0.865,0.398,0.683,0.642,�k�k��,2.6,��
2020/08/12,08:10,0.687,0.987,0.619,1.190,0.867,0.395,0.686,0.641,�k�k��,1.5,��
2020/08/12,08:20,0.686,0.987,0.621,1.190,0.867,0.396,0.684,0.641,�k��,1.5,��
2020/08/12,08:30,0.685,0.988,0.620,1.189,0.867,0.396,0.684,0.642,���k��,1.5,��
2020/08/12,08:40,0.687,0.985,0.621,1.189,0.867,0.397,0.685,0.641,���k��,1.9,��
2020/08/12,08:50,0.685,0.988,0.619,1.188,0.867,0.397,0.685,0.641,�k��,1.2,��
2020/08/12,09:00,0.683,0.986,0.619,1.190,0.870,0.396,0.686,0.640,���k��,1.9,��
2020/08/12,09:10,0.687,0.985,0.621,1.190,0.868,0.397,0.685,0.640,���k��,1.5,��
2020/08/12,09:20,0.686,0.989,0.619,1.191,0.866,0.396,0.685,0.640,�k��,1.7,��
2020/08/12,09:30,0.686,0.988,0.622,1.190,0.868,0.396,0.683,0.639,�k��,2.2,��
2020/08/12,09:40,0.686,0.989,0.620,1.190,0.868,0.397,0.684,0.640,�k�k��,0.9,��
2020/08/12,09:50,0.687,0.990,0.622,1.190,0.869,0.396,0.684,0.639,���k��,1.9,��
2020/08/12,10:00,0.688,0.990,0.620,1.191,0.868,0.397,0.683,0.640,���k��,0.9,��
2020/08/12,10:10,0.689,0.991,0.623,1.189,0.868,0.395,0.684,0.640,�k��,1.1,�L
2020/08/12,10:20,0.686,0.990,0.624,1.188,0.868,0.397,0.686,0.640,��,0.9,�L
2020/08/12,10:30,0.687,0.992,0.622,1.188,0.869,0.398,0.685,0.640,���쓌,1.5,�L
2020/08/12,10:40,0.687,0.990,0.620,1.186,0.869,0.396,0.684,0.642,�쓌,2.0,�L
2020/08/12,10:50,0.685,0.987,0.621,1.191,0.868,0.397,0.684,0.641,��,1.7,�L
2020/08/12,11:00,0.686,0.990,0.620,1.189,0.869,0.396,0.684,0.642,���쓌,0.9,�L
2020/08/12,11:10,0.685,0.991,0.621,1.191,0.868,0.397,0.684,0.640,�k��,0.6,�L
2020/08/12,11:20,0.687,0.988,0.621,1.189,0.868,0.396,0.683,0.641,-,CALM,��
2020/08/12,11:30,0.686,0.988,0.621,1.190,0.866,0.396,0.685,0.640,-,CALM,��
2020/08/12,11:40,0.687,0.992,0.621,1.191,0.869,0.397,0.685,0.640,-,CALM,��
2020/08/12,11:50,0.690,0.993,0.622,1.189,0.869,0.397,0.684,0.641,��,1.2,��
2020/08/12,12:00,0.690,0.992,0.621,1.192,0.869,0.397,0.684,0.642,��쐼,1.2,��
2020/08/12,12:10,0.688,0.991,0.621,1.192,0.867,0.399,0.684,0.642,�쓌,1.9,��
2020/08/12,12:20,0.688,0.990,0.623,1.192,0.870,0.397,0.684,0.641,��쓌,2.0,��
2020/08/12,12:30,0.690,0.991,0.622,1.189,0.868,0.398,0.685,0.641,��쓌,2.0,��
2020/08/12,12:40,0.688,0.994,0.622,1.193,0.872,0.398,0.684,0.642,��쓌,1.7,��
2020/08/12,12:50,0.690,0.991,0.622,1.192,0.871,0.398,0.685,0.641,�쓌,2.0,��
2020/08/12,13:00,0.688,0.994,0.621,1.193,0.869,0.396,0.683,0.641,�쓌,2.3,��
2020/08/12,13:10,0.688,0.989,0.620,1.193,0.868,0.398,0.683,0.641,��쓌,2.6,��
2020/08/12,13:20,0.689,0.992,0.620,1.196,0.868,0.396,0.683,0.642,��쓌,2.9,��
2020/08/12,13:30,0.689,0.991,0.618,1.192,0.869,0.397,0.683,0.640,��,3.0,��
2020/08/12,13:40,0.688,0.991,0.621,1.192,0.869,0.396,0.684,0.641,��쓌,3.4,��
2020/08/12,13:50,0.689,0.993,0.621,1.193,0.872,0.398,0.685,0.641,��,2.9,��
2020/08/12,14:00,0.691,0.993,0.621,1.192,0.870,0.396,0.683,0.640,��쐼,3.1,��
2020/08/12,14:10,0.692,0.995,0.620,1.194,0.871,0.396,0.684,0.641,�쐼,2.9,��
2020/08/12,14:20,0.690,0.996,0.621,1.193,0.871,0.397,0.684,0.640,���쐼,2.3,��
2020/08/12,14:30,0.692,0.994,0.623,1.194,0.872,0.397,0.684,0.642,��쐼,3.0,��
2020/08/12,14:40,0.690,0.995,0.622,1.194,0.873,0.399,0.683,0.640,��,2.6,��
2020/08/12,14:50,0.692,0.994,0.623,1.195,0.872,0.398,0.683,0.640,��,1.2,��
2020/08/12,15:00,0.690,0.994,0.623,1.196,0.873,0.398,0.683,0.640,��,2.3,��
2020/08/12,15:10,0.690,0.995,0.625,1.197,0.874,0.396,0.685,0.639,��,2.6,��
2020/08/12,15:20,0.691,0.997,0.623,1.195,0.874,0.399,0.686,0.640,��,3.1,��
2020/08/12,15:30,0.691,0.994,0.626,1.196,0.873,0.399,0.687,0.641,��,3.6,��
2020/08/12,15:40,0.691,0.996,0.624,1.197,0.873,0.398,0.687,0.642,��,4.1,��
2020/08/12,15:50,0.689,0.996,0.624,1.197,0.871,0.398,0.686,0.641,��,3.1,��
2020/08/12,16:00,0.690,0.996,0.624,1.198,0.872,0.398,0.685,0.641,��,3.0,��
2020/08/12,16:10,0.689,0.996,0.625,1.197,0.873,0.397,0.686,0.641,��,2.6,��
2020/08/12,16:20,0.690,0.996,0.625,1.194,0.874,0.398,0.686,0.644,��쓌,3.5,��
2020/08/12,16:30,0.690,0.998,0.624,1.196,0.874,0.398,0.686,0.642,��,5.6,��
2020/08/12,16:40,0.689,0.995,0.625,1.194,0.873,0.399,0.686,0.642,��,4.7,�L
2020/08/12,16:50,0.691,0.996,0.625,1.196,0.875,0.399,0.686,0.642,��,3.7,��
2020/08/12,17:00,0.691,0.992,0.624,1.198,0.873,0.398,0.685,0.642,��쐼,3.5,��
2020/08/12,17:10,0.690,0.995,0.625,1.195,0.875,0.398,0.685,0.643,��쐼,3.0,��
2020/08/12,17:20,0.690,0.995,0.625,1.196,0.875,0.398,0.684,0.644,���쐼,3.0,��
2020/08/12,17:30,0.692,0.996,0.625,1.193,0.873,0.397,0.683,0.645,���쐼,3.1,��
2020/08/12,17:40,0.691,0.994,0.624,1.194,0.872,0.399,0.685,0.642,���쐼,4.4,��
2020/08/12,17:50,0.691,0.995,0.625,1.197,0.872,0.398,0.686,0.642,���쐼,5.4,��
2020/08/12,18:00,0.691,0.997,0.623,1.199,0.871,0.398,0.687,0.644,���쐼,5.4,��
2020/08/12,18:10,0.689,0.994,0.624,1.196,0.873,0.397,0.686,0.644,���쐼,4.2,��
2020/08/12,18:20,0.690,0.995,0.623,1.194,0.872,0.397,0.684,0.644,���쐼,5.1,��
2020/08/12,18:30,0.689,0.995,0.623,1.195,0.872,0.399,0.684,0.642,��,4.2,��
2020/08/12,18:40,0.690,0.994,0.623,1.195,0.874,0.398,0.685,0.641,��,4.8,��
2020/08/12,18:50,0.692,0.995,0.622,1.197,0.871,0.397,0.685,0.643,��,6.6,��
2020/08/12,19:00,0.691,0.994,0.620,1.194,0.872,0.397,0.684,0.643,���쐼,5.9,��
2020/08/12,19:10,0.691,0.994,0.621,1.195,0.872,0.398,0.686,0.641,��,5.2,��
2020/08/12,19:20,0.689,0.994,0.622,1.197,0.873,0.397,0.685,0.642,��,4.7,��
2020/08/12,19:30,0.691,0.994,0.623,1.193,0.872,0.397,0.687,0.641,��,2.9,��
2020/08/12,19:40,0.690,0.993,0.622,1.192,0.872,0.397,0.684,0.643,���쐼,3.1,��
2020/08/12,19:50,0.691,0.993,0.622,1.196,0.870,0.397,0.686,0.642,���쐼,4.2,��
2020/08/12,20:00,0.690,0.993,0.622,1.194,0.871,0.397,0.686,0.642,���쐼,4.9,��
2020/08/12,20:10,0.692,0.993,0.622,1.196,0.872,0.397,0.684,0.644,���쐼,4.7,��
2020/08/12,20:20,0.692,0.993,0.622,1.196,0.871,0.394,0.687,0.643,���쐼,3.8,��
2020/08/12,20:30,0.690,0.993,0.622,1.197,0.871,0.396,0.686,0.642,���쐼,4.9,��
2020/08/12,20:40,0.691,0.994,0.622,1.193,0.871,0.397,0.686,0.643,���쐼,4.6,��
2020/08/12,20:50,0.690,0.992,0.623,1.193,0.872,0.397,0.687,0.642,���쐼,4.5,��
2020/08/12,21:00,0.692,0.996,0.624,1.195,0.872,0.396,0.687,0.642,���쐼,4.0,��
2020/08/12,21:10,0.691,0.995,0.623,1.195,0.872,0.398,0.685,0.641,�쐼,4.5,��
2020/08/12,21:20,0.692,0.996,0.623,1.196,0.872,0.397,0.686,0.643,�쐼,4.4,��
2020/08/12,21:30,0.693,0.998,0.622,1.196,0.872,0.397,0.686,0.642,�쐼,4.5,��
2020/08/12,21:40,0.691,0.994,0.623,1.195,0.872,0.397,0.686,0.644,���쐼,4.9,��
2020/08/12,21:50,0.690,0.994,0.623,1.196,0.872,0.397,0.687,0.642,���쐼,4.1,��
2020/08/12,22:00,0.691,0.995,0.625,1.193,0.872,0.400,0.686,0.642,���쐼,4.3,��
2020/08/12,22:10,0.691,0.994,0.621,1.196,0.871,0.397,0.685,0.644,���쐼,3.8,��
2020/08/12,22:20,0.692,0.994,0.623,1.196,0.873,0.397,0.686,0.644,�쐼,3.7,��
2020/08/12,22:30,0.692,0.994,0.623,1.197,0.872,0.398,0.687,0.641,���쐼,4.2,��
2020/08/12,22:40,0.691,0.995,0.624,1.195,0.873,0.398,0.685,0.642,�쐼,3.9,��
2020/08/12,22:50,0.693,0.993,0.623,1.197,0.874,0.397,0.686,0.643,���쐼,3.5,��
2020/08/12,23:00,0.691,0.994,0.625,1.197,0.873,0.398,0.687,0.643,�쐼,4.8,��
2020/08/12,23:10,0.692,0.995,0.624,1.195,0.876,0.397,0.687,0.644,���쐼,6.1,��
2020/08/12,23:20,0.689,0.996,0.625,1.198,0.874,0.397,0.685,0.642,�쐼,5.6,��
2020/08/12,23:30,0.692,0.993,0.624,1.199,0.874,0.397,0.685,0.643,�쐼,5.3,��
2020/08/12,23:40,0.692,0.995,0.623,1.198,0.873,0.398,0.686,0.640,���쐼,5.9,��
2020/08/12,23:50,0.690,0.996,0.624,1.198,0.872,0.399,0.687,0.643,���쐼,5.9,��
